Time,TemperatureF,DewpointF,PressureIn,WindDirection,WindDirectionDegrees,WindSpeedMPH,WindSpeedGustMPH,Humidity,HourlyPrecipIn,Conditions,Clouds,dailyrainin,SoftwareType,DateUTC
2013-02-01 00:00:00,1.9,-3.7,30.28,WNW,285,12.0,12.0,77,0.00,,,0.00,Wunderground v.1.15,2013-02-01 06:00:00,
2013-02-01 00:10:00,1.7,-4.1,30.28,WNW,287,11.0,12.0,76,0.00,,,0.00,Wunderground v.1.15,2013-02-01 06:10:00,
2013-02-01 00:20:00,1.7,-4.1,30.29,WNW,283,11.0,11.0,76,0.00,,,0.00,Wunderground v.1.15,2013-02-01 06:20:00,
2013-02-01 00:30:00,1.7,-4.1,30.29,WNW,288,9.0,11.0,76,0.00,,,0.00,Wunderground v.1.15,2013-02-01 06:30:00,
2013-02-01 00:40:00,1.7,-3.8,30.30,West,276,8.0,8.0,77,0.00,,,0.00,Wunderground v.1.15,2013-02-01 06:40:00,
2013-02-01 00:50:00,1.6,-3.9,30.30,WNW,289,10.0,10.0,77,0.00,,,0.00,Wunderground v.1.15,2013-02-01 06:50:00,
2013-02-01 01:00:00,1.5,-4.0,30.30,WNW,293,11.0,12.0,77,0.00,,,0.00,Wunderground v.1.15,2013-02-01 07:00:00,
2013-02-01 01:10:00,1.4,-4.1,30.31,WSW,253,10.0,11.0,77,0.00,,,0.00,Wunderground v.1.15,2013-02-01 07:10:00,
2013-02-01 01:20:00,1.4,-4.1,30.31,WNW,296,11.0,11.0,77,0.00,,,0.00,Wunderground v.1.15,2013-02-01 07:20:00,
2013-02-01 01:25:00,1.4,-3.9,30.31,West,265,10.0,11.0,78,0.00,,,0.00,Wunderground v.1.15,2013-02-01 07:25:00,
2013-02-01 01:35:00,1.3,-3.7,30.32,WNW,284,10.0,10.0,79,0.00,,,0.00,Wunderground v.1.15,2013-02-01 07:35:00,
2013-02-01 01:40:00,1.3,-3.7,30.32,West,264,10.0,10.0,79,0.00,,,0.00,Wunderground v.1.15,2013-02-01 07:40:00,
2013-02-01 01:50:00,1.1,-3.9,30.32,West,277,10.0,10.0,79,0.00,,,0.00,Wunderground v.1.15,2013-02-01 07:50:00,
2013-02-01 02:00:00,1.0,-4.0,30.33,WNW,292,10.0,10.0,79,0.00,,,0.00,Wunderground v.1.15,2013-02-01 08:00:00,
2013-02-01 02:10:00,0.9,-4.1,30.33,West,278,9.0,9.0,79,0.00,,,0.00,Wunderground v.1.15,2013-02-01 08:10:00,
2013-02-01 02:20:00,0.8,-4.5,30.34,West,278,10.0,10.0,78,0.00,,,0.00,Wunderground v.1.15,2013-02-01 08:20:00,
2013-02-01 02:30:00,0.7,-4.3,30.34,WSW,257,9.0,9.0,79,0.00,,,0.00,Wunderground v.1.15,2013-02-01 08:30:00,
2013-02-01 02:40:00,0.7,-4.3,30.35,West,269,8.0,8.0,79,0.00,,,0.00,Wunderground v.1.15,2013-02-01 08:40:00,
2013-02-01 02:50:00,0.5,-4.5,30.35,WSW,248,7.0,11.0,79,0.00,,,0.00,Wunderground v.1.15,2013-02-01 08:50:00,
2013-02-01 03:00:00,0.5,-4.5,30.35,WSW,258,9.0,9.0,79,0.00,,,0.00,Wunderground v.1.15,2013-02-01 09:00:00,
2013-02-01 03:05:00,0.5,-4.5,30.36,WSW,250,8.0,12.0,79,0.00,,,0.00,Wunderground v.1.15,2013-02-01 09:05:00,
2013-02-01 03:15:00,0.4,-4.6,30.36,West,276,9.0,9.0,79,0.00,,,0.00,Wunderground v.1.15,2013-02-01 09:15:00,
2013-02-01 03:20:00,0.4,-4.6,30.36,West,265,8.0,9.0,79,0.00,,,0.00,Wunderground v.1.15,2013-02-01 09:20:00,
2013-02-01 03:30:00,0.3,-4.9,30.36,WNW,288,9.0,14.0,78,0.00,,,0.00,Wunderground v.1.15,2013-02-01 09:30:00,
2013-02-01 03:35:00,0.3,-4.9,30.36,WNW,302,10.0,14.0,78,0.00,,,0.00,Wunderground v.1.15,2013-02-01 09:35:00,
2013-02-01 03:45:00,0.2,-5.0,30.36,West,277,9.0,12.0,78,0.00,,,0.00,Wunderground v.1.15,2013-02-01 09:45:00,
2013-02-01 03:55:00,0.2,-5.3,30.36,WNW,285,9.0,9.0,77,0.00,,,0.00,Wunderground v.1.15,2013-02-01 09:55:00,
2013-02-01 04:00:00,0.1,-5.4,30.36,West,267,9.0,9.0,77,0.00,,,0.00,Wunderground v.1.15,2013-02-01 10:00:00,
2013-02-01 04:10:00,0.1,-5.1,30.36,West,276,9.0,9.0,78,0.00,,,0.00,Wunderground v.1.15,2013-02-01 10:10:00,
2013-02-01 04:20:00,0.0,-5.2,30.36,West,274,9.0,10.0,78,0.00,,,0.00,Wunderground v.1.15,2013-02-01 10:20:00,
2013-02-01 04:25:00,0.0,-5.0,30.36,WNW,284,9.0,10.0,79,0.00,,,0.00,Wunderground v.1.15,2013-02-01 10:25:00,
2013-02-01 04:35:00,0.0,-5.0,30.36,West,278,9.0,10.0,79,0.00,,,0.00,Wunderground v.1.15,2013-02-01 10:35:00,
2013-02-01 04:40:00,0.0,-5.0,30.37,West,267,9.0,9.0,79,0.00,,,0.00,Wunderground v.1.15,2013-02-01 10:40:00,
2013-02-01 04:50:00,-0.2,-5.2,30.37,West,281,8.0,8.0,79,0.00,,,0.00,Wunderground v.1.15,2013-02-01 10:50:00,
2013-02-01 04:55:00,-0.3,-5.5,30.37,NW,317,8.0,10.0,78,0.00,,,0.00,Wunderground v.1.15,2013-02-01 10:55:00,
2013-02-01 05:00:00,-0.2,-5.2,30.37,WNW,287,8.0,8.0,79,0.00,,,0.00,Wunderground v.1.15,2013-02-01 11:00:00,
2013-02-01 05:10:00,-0.3,-5.0,30.37,WNW,283,6.0,7.0,80,0.00,,,0.00,Wunderground v.1.15,2013-02-01 11:10:00,
2013-02-01 05:20:00,-0.4,-5.1,30.38,West,259,7.0,7.0,80,0.00,,,0.00,Wunderground v.1.15,2013-02-01 11:20:00,
2013-02-01 05:25:00,-0.5,-5.5,30.38,WSW,248,8.0,10.0,79,0.00,,,0.00,Wunderground v.1.15,2013-02-01 11:25:00,
2013-02-01 05:35:00,-0.6,-5.6,30.38,West,263,8.0,12.0,79,0.00,,,0.00,Wunderground v.1.15,2013-02-01 11:35:00,
2013-02-01 05:40:00,-0.6,-5.6,30.38,WNW,290,8.0,9.0,79,0.00,,,0.00,Wunderground v.1.15,2013-02-01 11:40:00,
2013-02-01 05:50:00,-0.7,-5.7,30.38,West,262,7.0,7.0,79,0.00,,,0.00,Wunderground v.1.15,2013-02-01 11:50:00,
2013-02-01 05:55:00,-0.7,-5.7,30.38,West,280,6.0,8.0,79,0.00,,,0.00,Wunderground v.1.15,2013-02-01 11:55:00,
2013-02-01 06:00:00,-0.7,-5.9,30.39,WNW,291,7.0,10.0,78,0.00,,,0.00,Wunderground v.1.15,2013-02-01 12:00:00,
2013-02-01 06:10:00,-0.7,-5.7,30.38,West,271,7.0,7.0,79,0.00,,,0.00,Wunderground v.1.15,2013-02-01 12:10:00,
2013-02-01 06:20:00,-0.7,-5.4,30.39,SW,229,7.0,8.0,80,0.00,,,0.00,Wunderground v.1.15,2013-02-01 12:20:00,
2013-02-01 06:30:00,-0.6,-5.3,30.39,WNW,284,6.0,6.0,80,0.00,,,0.00,Wunderground v.1.15,2013-02-01 12:30:00,
2013-02-01 06:40:00,-0.7,-5.4,30.40,West,264,6.0,8.0,80,0.00,,,0.00,Wunderground v.1.15,2013-02-01 12:40:00,
2013-02-01 06:50:00,-0.7,-5.4,30.40,West,262,6.0,10.0,80,0.00,,,0.00,Wunderground v.1.15,2013-02-01 12:50:00,
2013-02-01 07:00:00,-0.7,-5.4,30.40,WNW,288,7.0,7.0,80,0.00,,,0.00,Wunderground v.1.15,2013-02-01 13:00:00,
2013-02-01 07:10:00,-0.8,-5.5,30.41,West,267,6.0,6.0,80,0.00,,,0.00,Wunderground v.1.15,2013-02-01 13:10:00,
2013-02-01 07:15:00,-0.7,-5.4,30.41,West,259,7.0,10.0,80,0.00,,,0.00,Wunderground v.1.15,2013-02-01 13:15:00,
2013-02-01 07:25:00,-0.7,-5.7,30.41,West,266,8.0,9.0,79,0.00,,,0.00,Wunderground v.1.15,2013-02-01 13:25:00,
2013-02-01 07:30:00,-0.6,-5.6,30.41,WSW,252,8.0,9.0,79,0.00,,,0.00,Wunderground v.1.15,2013-02-01 13:30:00,
2013-02-01 07:40:00,-0.6,-5.6,30.41,West,280,7.0,7.0,79,0.00,,,0.00,Wunderground v.1.15,2013-02-01 13:40:00,
2013-02-01 07:45:00,-0.5,-5.5,30.41,WSW,253,7.0,7.0,79,0.00,,,0.00,Wunderground v.1.15,2013-02-01 13:45:00,
2013-02-01 07:55:00,-0.4,-5.6,30.41,West,262,8.0,9.0,78,0.00,,,0.00,Wunderground v.1.15,2013-02-01 13:55:00,
2013-02-01 08:00:00,-0.3,-5.5,30.42,West,271,9.0,12.0,78,0.00,,,0.00,Wunderground v.1.15,2013-02-01 14:00:00,
2013-02-01 08:10:00,0.0,-5.2,30.42,WNW,283,7.0,9.0,78,0.00,,,0.00,Wunderground v.1.15,2013-02-01 14:10:00,
2013-02-01 08:20:00,0.1,-5.4,30.42,West,269,9.0,9.0,77,0.00,,,0.00,Wunderground v.1.15,2013-02-01 14:20:00,
2013-02-01 08:30:00,0.3,-5.2,30.42,WSW,248,8.0,8.0,77,0.00,,,0.00,Wunderground v.1.15,2013-02-01 14:30:00,
2013-02-01 08:35:00,0.6,-4.9,30.43,West,260,8.0,9.0,77,0.00,,,0.00,Wunderground v.1.15,2013-02-01 14:35:00,
2013-02-01 08:45:00,0.9,-4.6,30.43,West,267,9.0,9.0,77,0.00,,,0.00,Wunderground v.1.15,2013-02-01 14:45:00,
2013-02-01 08:50:00,1.1,-4.4,30.43,West,263,9.0,9.0,77,0.00,,,0.00,Wunderground v.1.15,2013-02-01 14:50:00,
2013-02-01 09:00:00,1.5,-4.3,30.44,West,277,10.0,10.0,76,0.00,,,0.00,Wunderground v.1.15,2013-02-01 15:00:00,
2013-02-01 09:10:00,1.9,-3.9,30.44,WNW,283,9.0,9.0,76,0.00,,,0.00,Wunderground v.1.15,2013-02-01 15:10:00,
2013-02-01 09:20:00,2.5,-3.1,30.44,WSW,256,9.0,18.0,77,0.00,,,0.00,Wunderground v.1.15,2013-02-01 15:20:00,
2013-02-01 09:30:00,2.9,-3.2,30.44,West,274,9.0,12.0,75,0.00,,,0.00,Wunderground v.1.15,2013-02-01 15:30:00,
2013-02-01 09:35:00,3.3,-2.6,30.45,WSW,256,8.0,12.0,76,0.00,,,0.00,Wunderground v.1.15,2013-02-01 15:35:00,
2013-02-01 09:45:00,4.0,-1.3,30.44,WSW,238,7.0,8.0,78,0.00,,,0.00,Wunderground v.1.15,2013-02-01 15:45:00,
2013-02-01 09:55:00,4.4,-1.5,30.44,West,264,8.0,11.0,76,0.00,,,0.00,Wunderground v.1.15,2013-02-01 15:55:00,
2013-02-01 10:00:00,4.6,-1.0,30.45,WSW,253,8.0,9.0,77,0.00,,,0.00,Wunderground v.1.15,2013-02-01 16:00:00,
2013-02-01 10:10:00,5.2,-0.7,30.45,WSW,245,8.0,9.0,76,0.00,,,0.00,Wunderground v.1.15,2013-02-01 16:10:00,
2013-02-01 10:20:00,5.2,-1.0,30.45,WSW,248,9.0,11.0,75,0.00,,,0.00,Wunderground v.1.15,2013-02-01 16:20:00,
2013-02-01 10:30:00,5.5,-1.0,30.45,WNW,293,9.0,9.0,74,0.00,,,0.00,Wunderground v.1.15,2013-02-01 16:30:00,
2013-02-01 10:40:00,5.8,-0.4,30.44,WSW,257,8.0,8.0,75,0.00,,,0.00,Wunderground v.1.15,2013-02-01 16:40:00,
2013-02-01 10:45:00,5.9,-0.3,30.45,WSW,248,8.0,13.0,75,0.00,,,0.00,Wunderground v.1.15,2013-02-01 16:45:00,
2013-02-01 10:55:00,6.1,-0.1,30.44,West,273,10.0,12.0,75,0.00,,,0.00,Wunderground v.1.15,2013-02-01 16:55:00,
2013-02-01 11:00:00,6.6,0.4,30.44,WSW,240,8.0,8.0,75,0.00,,,0.00,Wunderground v.1.15,2013-02-01 17:00:00,
2013-02-01 11:10:00,6.9,0.6,30.44,West,276,8.0,8.0,75,0.00,,,0.00,Wunderground v.1.15,2013-02-01 17:10:00,
2013-02-01 11:15:00,7.2,0.7,30.44,West,262,7.0,10.0,74,0.00,,,0.00,Wunderground v.1.15,2013-02-01 17:15:00,
2013-02-01 11:25:00,7.9,1.0,30.43,SW,236,7.0,8.0,73,0.00,,,0.00,Wunderground v.1.15,2013-02-01 17:25:00,
2013-02-01 11:35:00,7.4,0.6,30.43,West,270,9.0,9.0,73,0.00,,,0.00,Wunderground v.1.15,2013-02-01 17:35:00,
2013-02-01 11:45:00,8.5,2.2,30.43,WSW,256,7.0,10.0,75,0.00,,,0.00,Wunderground v.1.15,2013-02-01 17:45:00,
2013-02-01 11:55:00,8.9,2.0,30.43,WSW,248,9.0,11.0,73,0.00,,,0.00,Wunderground v.1.15,2013-02-01 17:55:00,
2013-02-01 12:00:00,8.6,1.7,30.43,SW,236,9.0,10.0,73,0.00,,,0.00,Wunderground v.1.15,2013-02-01 18:00:00,
2013-02-01 12:05:00,9.0,2.4,30.43,SW,229,10.0,10.0,74,0.00,,,0.00,Wunderground v.1.15,2013-02-01 18:05:00,
2013-02-01 12:15:00,9.3,1.8,30.42,West,274,9.0,11.0,71,0.00,,,0.00,Wunderground v.1.15,2013-02-01 18:15:00,
2013-02-01 12:20:00,9.6,2.7,30.42,WSW,242,10.0,12.0,73,0.00,,,0.00,Wunderground v.1.15,2013-02-01 18:20:00,
2013-02-01 12:30:00,9.6,3.0,30.42,SSE,148,8.0,8.0,74,0.00,,,0.00,Wunderground v.1.15,2013-02-01 18:30:00,
2013-02-01 12:35:00,9.9,2.7,30.41,WSW,256,9.0,12.0,72,0.00,,,0.00,Wunderground v.1.15,2013-02-01 18:35:00,
2013-02-01 12:45:00,10.4,3.5,30.41,West,266,9.0,10.0,73,0.00,,,0.00,Wunderground v.1.15,2013-02-01 18:45:00,
2013-02-01 12:50:00,10.7,4.0,30.41,WSW,250,9.0,9.0,74,0.00,,,0.00,Wunderground v.1.15,2013-02-01 18:50:00,
2013-02-01 13:00:00,11.3,4.3,30.40,WSW,250,8.0,8.0,73,0.00,,,0.00,Wunderground v.1.15,2013-02-01 19:00:00,
2013-02-01 13:10:00,11.0,3.1,30.40,WSW,240,9.0,9.0,70,0.00,,,0.00,Wunderground v.1.15,2013-02-01 19:10:00,
2013-02-01 13:20:00,11.1,3.2,30.39,SW,221,7.0,8.0,70,0.00,,,0.00,Wunderground v.1.15,2013-02-01 19:20:00,
2013-02-01 13:30:00,10.5,2.6,30.39,WSW,250,8.0,8.0,70,0.00,,,0.00,Wunderground v.1.15,2013-02-01 19:30:00,
2013-02-01 13:40:00,11.8,4.5,30.38,WSW,257,8.0,8.0,72,0.00,,,0.00,Wunderground v.1.15,2013-02-01 19:40:00,
2013-02-01 13:50:00,11.7,3.8,30.38,West,274,7.0,7.0,70,0.00,,,0.00,Wunderground v.1.15,2013-02-01 19:50:00,
2013-02-01 13:55:00,11.6,3.7,30.38,WSW,248,8.0,8.0,70,0.00,,,0.00,Wunderground v.1.15,2013-02-01 19:55:00,
2013-02-01 14:00:00,12.1,4.5,30.37,SW,218,8.0,8.0,71,0.00,,,0.00,Wunderground v.1.15,2013-02-01 20:00:00,
2013-02-01 14:10:00,12.4,4.8,30.37,SW,219,7.0,7.0,71,0.00,,,0.00,Wunderground v.1.15,2013-02-01 20:10:00,
2013-02-01 14:20:00,13.2,5.2,30.37,WSW,255,7.0,7.0,70,0.00,,,0.00,Wunderground v.1.15,2013-02-01 20:20:00,
2013-02-01 14:25:00,13.4,5.1,30.37,SW,236,6.0,7.0,69,0.00,,,0.00,Wunderground v.1.15,2013-02-01 20:25:00,
2013-02-01 14:35:00,13.2,5.2,30.36,SW,232,7.0,7.0,70,0.00,,,0.00,Wunderground v.1.15,2013-02-01 20:35:00,
2013-02-01 14:40:00,13.2,4.6,30.36,WSW,249,6.0,8.0,68,0.00,,,0.00,Wunderground v.1.15,2013-02-01 20:40:00,
2013-02-01 14:50:00,13.8,5.5,30.36,SW,226,6.0,6.0,69,0.00,,,0.00,Wunderground v.1.15,2013-02-01 20:50:00,
2013-02-01 14:55:00,13.8,5.5,30.36,West,262,5.0,9.0,69,0.00,,,0.00,Wunderground v.1.15,2013-02-01 20:55:00,
2013-02-01 15:00:00,13.9,5.9,30.36,SW,233,5.0,6.0,70,0.00,,,0.00,Wunderground v.1.15,2013-02-01 21:00:00,
2013-02-01 15:10:00,14.1,5.8,30.36,WSW,245,6.0,6.0,69,0.00,,,0.00,Wunderground v.1.15,2013-02-01 21:10:00,
2013-02-01 15:15:00,14.3,6.0,30.36,WSW,242,7.0,7.0,69,0.00,,,0.00,Wunderground v.1.15,2013-02-01 21:15:00,
2013-02-01 15:25:00,13.9,5.0,30.35,South,181,8.0,8.0,67,0.00,,,0.00,Wunderground v.1.15,2013-02-01 21:25:00,
2013-02-01 15:30:00,14.0,5.7,30.36,WSW,238,7.0,8.0,69,0.00,,,0.00,Wunderground v.1.15,2013-02-01 21:30:00,
2013-02-01 15:40:00,14.2,5.9,30.35,SW,236,6.0,6.0,69,0.00,,,0.00,Wunderground v.1.15,2013-02-01 21:40:00,
2013-02-01 15:45:00,14.6,6.6,30.35,WSW,248,6.0,9.0,70,0.00,,,0.00,Wunderground v.1.15,2013-02-01 21:45:00,
2013-02-01 15:55:00,14.5,5.9,30.34,WSW,243,7.0,7.0,68,0.00,,,0.00,Wunderground v.1.15,2013-02-01 21:55:00,
2013-02-01 16:00:00,14.3,5.3,30.34,SW,232,7.0,7.0,67,0.00,,,0.00,Wunderground v.1.15,2013-02-01 22:00:00,
2013-02-01 16:10:00,14.4,5.4,30.34,WSW,251,7.0,11.0,67,0.00,,,0.00,Wunderground v.1.15,2013-02-01 22:10:00,
2013-02-01 16:20:00,14.5,5.9,30.34,WSW,245,6.0,8.0,68,0.00,,,0.00,Wunderground v.1.15,2013-02-01 22:20:00,
2013-02-01 16:30:00,14.5,5.5,30.34,WSW,242,7.0,7.0,67,0.00,,,0.00,Wunderground v.1.15,2013-02-01 22:30:00,
2013-02-01 16:40:00,14.4,5.4,30.35,West,260,6.0,8.0,67,0.00,,,0.00,Wunderground v.1.15,2013-02-01 22:40:00,
2013-02-01 16:50:00,14.1,5.8,30.34,WSW,243,7.0,9.0,69,0.00,,,0.00,Wunderground v.1.15,2013-02-01 22:50:00,
2013-02-01 17:00:00,14.1,6.1,30.34,SW,229,6.0,6.0,70,0.00,,,0.00,Wunderground v.1.15,2013-02-01 23:00:00,
2013-02-01 17:10:00,14.2,6.2,30.34,SSW,212,6.0,6.0,70,0.00,,,0.00,Wunderground v.1.15,2013-02-01 23:10:00,
2013-02-01 17:20:00,14.1,5.5,30.33,WSW,257,7.0,7.0,68,0.00,,,0.00,Wunderground v.1.15,2013-02-01 23:20:00,
2013-02-01 17:30:00,14.3,6.0,30.33,WSW,239,4.0,4.0,69,0.00,,,0.00,Wunderground v.1.15,2013-02-01 23:30:00,
2013-02-01 17:40:00,14.6,7.2,30.32,SW,224,4.0,6.0,72,0.00,,,0.00,Wunderground v.1.15,2013-02-01 23:40:00,
2013-02-01 17:50:00,14.8,7.1,30.32,SSW,210,5.0,5.0,71,0.00,,,0.00,Wunderground v.1.15,2013-02-01 23:50:00,
2013-02-01 17:55:00,14.9,7.2,30.32,SW,226,5.0,5.0,71,0.00,,,0.00,Wunderground v.1.15,2013-02-01 23:55:00,
2013-02-01 18:00:00,14.9,7.2,30.32,WSW,240,4.0,7.0,71,0.00,,,0.00,Wunderground v.1.15,2013-02-02 00:00:00,
2013-02-01 18:10:00,14.9,6.6,30.32,SW,233,6.0,6.0,69,0.00,,,0.00,Wunderground v.1.15,2013-02-02 00:10:00,
2013-02-01 18:20:00,15.0,7.3,30.32,SW,229,4.0,5.0,71,0.00,,,0.00,Wunderground v.1.15,2013-02-02 00:20:00,
2013-02-01 18:25:00,15.1,7.1,30.31,SW,218,4.0,5.0,70,0.00,,,0.00,Wunderground v.1.15,2013-02-02 00:25:00,
2013-02-01 18:35:00,15.2,7.2,30.31,SW,233,4.0,5.0,70,0.00,,,0.00,Wunderground v.1.15,2013-02-02 00:35:00,
2013-02-01 18:40:00,15.3,7.3,30.31,SW,229,5.0,7.0,70,0.00,,,0.00,Wunderground v.1.15,2013-02-02 00:40:00,
2013-02-01 18:50:00,15.3,6.9,30.31,SW,236,5.0,5.0,69,0.00,,,0.00,Wunderground v.1.15,2013-02-02 00:50:00,
2013-02-01 19:00:00,15.4,7.4,30.32,SW,226,4.0,6.0,70,0.00,,,0.00,Wunderground v.1.15,2013-02-02 01:00:00,
2013-02-01 19:10:00,15.5,7.1,30.31,SSW,203,4.0,4.0,69,0.00,,,0.00,Wunderground v.1.15,2013-02-02 01:10:00,
2013-02-01 19:15:00,15.5,7.1,30.31,SSW,207,4.0,5.0,69,0.00,,,0.00,Wunderground v.1.15,2013-02-02 01:15:00,
2013-02-01 19:25:00,15.6,6.9,30.30,South,169,4.0,4.0,68,0.00,,,0.00,Wunderground v.1.15,2013-02-02 01:25:00,
2013-02-01 19:30:00,15.6,7.2,30.30,SW,235,4.0,4.0,69,0.00,,,0.00,Wunderground v.1.15,2013-02-02 01:30:00,
2013-02-01 19:40:00,15.7,7.6,30.29,SSW,193,4.0,4.0,70,0.00,,,0.00,Wunderground v.1.15,2013-02-02 01:40:00,
2013-02-01 19:50:00,15.9,7.8,30.29,SSW,193,3.0,6.0,70,0.00,,,0.00,Wunderground v.1.15,2013-02-02 01:50:00,
2013-02-01 20:00:00,16.0,7.9,30.28,SSW,205,4.0,5.0,70,0.00,,,0.00,Wunderground v.1.15,2013-02-02 02:00:00,
2013-02-01 20:10:00,16.1,8.0,30.28,SSW,200,4.0,4.0,70,0.00,,,0.00,Wunderground v.1.15,2013-02-02 02:10:00,
2013-02-01 20:20:00,16.2,8.4,30.27,SW,224,4.0,6.0,71,0.00,,,0.00,Wunderground v.1.15,2013-02-02 02:20:00,
2013-02-01 20:30:00,16.3,8.5,30.27,SW,219,4.0,4.0,71,0.00,,,0.00,Wunderground v.1.15,2013-02-02 02:30:00,
2013-02-01 20:40:00,16.3,8.5,30.26,South,173,4.0,4.0,71,0.00,,,0.00,Wunderground v.1.15,2013-02-02 02:40:00,
2013-02-01 20:50:00,16.4,8.9,30.26,SSW,204,4.0,4.0,72,0.00,,,0.00,Wunderground v.1.15,2013-02-02 02:50:00,
2013-02-01 21:00:00,16.5,9.4,30.26,SW,235,3.0,6.0,73,0.00,,,0.00,Wunderground v.1.15,2013-02-02 03:00:00,
2013-02-01 21:10:00,16.6,9.8,30.25,SSW,203,3.0,3.0,74,0.00,,,0.00,Wunderground v.1.15,2013-02-02 03:10:00,
2013-02-01 21:20:00,16.7,10.1,30.25,SW,232,3.0,7.0,75,0.00,,,0.00,Wunderground v.1.15,2013-02-02 03:20:00,
2013-02-01 21:30:00,16.9,10.0,30.25,SE,140,3.0,3.0,74,0.00,,,0.00,Wunderground v.1.15,2013-02-02 03:30:00,
2013-02-01 21:40:00,17.0,10.1,30.25,SW,218,3.0,4.0,74,0.00,,,0.00,Wunderground v.1.15,2013-02-02 03:40:00,
2013-02-01 21:50:00,17.1,10.2,30.24,South,186,3.0,3.0,74,0.00,,,0.00,Wunderground v.1.15,2013-02-02 03:50:00,
2013-02-01 22:00:00,17.3,10.4,30.24,SW,221,2.0,2.0,74,0.00,,,0.00,Wunderground v.1.15,2013-02-02 04:00:00,
2013-02-01 22:10:00,17.4,10.8,30.23,South,179,2.0,2.0,75,0.00,,,0.00,Wunderground v.1.15,2013-02-02 04:10:00,
2013-02-01 22:20:00,17.5,10.6,30.24,SW,218,1.0,1.0,74,0.00,,,0.00,Wunderground v.1.15,2013-02-02 04:20:00,
2013-02-01 22:30:00,17.8,10.9,30.23,SSE,167,1.0,1.0,74,0.00,,,0.00,Wunderground v.1.15,2013-02-02 04:30:00,
2013-02-01 22:35:00,17.8,10.9,30.23,SSE,163,1.0,1.0,74,0.00,,,0.00,Wunderground v.1.15,2013-02-02 04:35:00,
2013-02-01 22:45:00,18.0,10.8,30.23,South,171,2.0,4.0,73,0.00,,,0.00,Wunderground v.1.15,2013-02-02 04:45:00,
2013-02-01 22:50:00,18.1,11.2,30.23,SE,146,2.0,2.0,74,0.00,,,0.00,Wunderground v.1.15,2013-02-02 04:50:00,
2013-02-01 23:00:00,18.3,11.4,30.23,SW,217,2.0,2.0,74,0.00,,,0.00,Wunderground v.1.15,2013-02-02 05:00:00,
2013-02-01 23:05:00,18.4,11.8,30.23,SSE,153,2.0,2.0,75,0.00,,,0.00,Wunderground v.1.15,2013-02-02 05:05:00,
2013-02-01 23:10:00,18.5,11.6,30.23,SSW,198,2.0,2.0,74,0.00,,,0.00,Wunderground v.1.15,2013-02-02 05:10:00,
2013-02-01 23:20:00,18.7,12.4,30.23,SSW,207,2.0,2.0,76,0.00,,,0.00,Wunderground v.1.15,2013-02-02 05:20:00,
2013-02-01 23:30:00,18.7,13.6,30.23,SSE,152,3.0,4.0,80,0.00,,,0.00,Wunderground v.1.15,2013-02-02 05:30:00,
2013-02-01 23:40:00,18.4,14.1,30.23,SSW,205,3.0,3.0,83,0.00,,,0.00,Wunderground v.1.15,2013-02-02 05:40:00,
2013-02-01 23:50:00,18.2,14.7,30.22,SSW,212,3.0,3.0,86,0.00,,,0.00,Wunderground v.1.15,2013-02-02 05:50:00,